This is the latest recevied weather packets stored in our database for station/object KM8V-8. If no packets are shown the sender has not sent any weather packets the latest 10 day(s).
| Time | Temp. | Humidity | Pressure | Rain* | Wind** | Luminosity | Snow |
|---|---|---|---|---|---|---|---|
| 1778075118 | 8.89° C | 89% | 1010.4 hPa | 0 mm | - | 215 W/m² | - |
| 1778074818 | 8.89° C | 89% | 1010.3 hPa | 0 mm | - | 208 W/m² | - |
| 1778074518 | 8.89° C | 90% | 1010.3 hPa | 0 mm | - | 213 W/m² | - |
| 1778074218 | 8.33° C | 91% | 1010.2 hPa | 0 mm | - | 197 W/m² | - |
| 1778073918 | 8.33° C | 93% | 1010.1 hPa | 0 mm | - | 201 W/m² | - |
| 1778073619 | 8.33° C | 95% | 1010.1 hPa | 0 mm | - | 207 W/m² | - |
| 1778073319 | 8.33° C | 97% | 1010.1 hPa | 0 mm | - | 167 W/m² | - |
| 1778073019 | 7.78° C | 98% | 1010.1 hPa | 0 mm | - | 127 W/m² | - |
| 1778072719 | 7.78° C | 99% | 1010 hPa | 0 mm | - | 134 W/m² | - |
| 1778072419 | 7.78° C | 99% | 1009.9 hPa | 0 mm | - | 143 W/m² | - |
| 1778072119 | 7.78° C | 100% | 1009.7 hPa | 0 mm | - | 159 W/m² | - |
| 1778071819 | 7.78° C | 100% | 1009.8 hPa | 0 mm | - | 138 W/m² | - |
| 1778071519 | 7.78° C | 100% | 1009.9 hPa | 0 mm | - | 74 W/m² | - |
| 1778071219 | 7.78° C | 100% | 1009.6 hPa | 0 mm | - | 93 W/m² | - |
| 1778070919 | 7.78° C | 100% | 1009.7 hPa | 0 mm | - | 91 W/m² | - |
| 1778070619 | 7.78° C | 100% | 1009.7 hPa | 0 mm | - | 80 W/m² | - |
| 1778070320 | 7.78° C | 100% | 1009.6 hPa | 0 mm | - | 56 W/m² | - |
| 1778070020 | 7.78° C | 100% | 1009.7 hPa | 0 mm | - | 55 W/m² | - |
| 1778069720 | 7.78° C | 100% | 1009.7 hPa | 0 mm | - | 47 W/m² | - |
| 1778069420 | 7.78° C | 100% | 1009.8 hPa | 0 mm | - | 36 W/m² | - |
| 1778069120 | 7.78° C | 100% | 1009.8 hPa | 0 mm | - | 41 W/m² | - |
| 1778068824 | 7.78° C | 100% | 1009.7 hPa | 0 mm | - | 50 W/m² | - |
| 1778068520 | 7.78° C | 100% | 1009.6 hPa | 0 mm | - | 35 W/m² | - |
| 1778068220 | 7.78° C | 100% | 1009.7 hPa | 0 mm | - | 29 W/m² | - |
| 1778067920 | 7.22° C | 100% | 1009.5 hPa | 0 mm | - | 29 W/m² | - |
* Rain latest hour (hover to see other rain measurements)
** Current wind speed in m/s (hover to see current wind gust speed)